Weather History for Melbourne, FL

Change the Weather History Date:

Saturday, February 22, 2014

  Actual Average Record
Temperature  
Mean Temperature 75 °F 63 °F  
Max Temperature 83 °F 74 °F 88 °F (1962)
Min Temperature 67 °F 53 °F 34 °F (1977)
Degree Days  
Heating Degree Days 0 4  
Month to date heating degree days 51 100  
Since 1 July heating degree days 297 469  
Cooling Degree Days 10 2  
Month to date cooling degree days 84 44  
Year to date cooling degree days 141 88  
Growing Degree Days 24 (Base 50)    
Moisture  
Dew Point 68 °F    
Average Humidity 78    
Maximum Humidity 97    
Minimum Humidity 58    
Precipitation  
Precipitation 0.05 in 0.09 in 0.75 in (1964)
Month to date precipitation 0.90 1.95  
Year to date precipitation 6.68 4.22  
Sea Level Pressure  
Sea Level Pressure 30.07 in    
Wind  
Wind Speed 6 mph (SW)    
Max Wind Speed 16 mph    
Max Gust Speed 20 mph    
Visibility 9 miles    
Events Rain , Thunderstorm    
T = Trace of Precipitation, MM = Missing Value Source: NWS Daily Summary

Daily Weather History Graph

Daily Weather History Graph

Search for Another Location

Airport:

Trip Planner

Search our weather history database for the weather conditions in past years. The results will help you decide how hot, cold, wet, or windy it might be!

Date:

Astronomy

Feb. 22, 2014 Rise Set
Actual Time 6:54 AM EST 6:18 PM EST
Civil Twilight 6:30 AM EST 6:42 PM EST
Nautical Twilight 6:02 AM EST 7:09 PM EST
Astronomical Twilight 5:35 AM EST 7:36 PM EST
Moon 12:36 AM EST (2/22) 11:40 AM EST (2/22)
Length of Visible Light 12h 11m
Length of Day
11h 24m
Waning Gibbous, 50% of the Moon is Illuminated
Feb 22
Waning Gibbous
Feb 22
Last Quarter
Mar 1
New
Mar 8
First Quarter
Mar 16
Full

Hourly Weather History & Observations

Time (EST) Temp. Heat Index Dew Point Humidity Pressure Visibility Wind Dir Wind Speed Gust Speed Precip Events Conditions
12:53 AM 69.1 °F - 66.9 °F 93% 30.06 in 10.0 mi South 6.9 mph - N/A   Partly Cloudy
1:53 AM 68.0 °F - 66.0 °F 93% 30.06 in 10.0 mi SSW 4.6 mph - N/A   Clear
2:53 AM 68.0 °F - 66.0 °F 93% 30.04 in 10.0 mi SSW 4.6 mph - N/A   Clear
3:41 AM 68.0 °F - 66.0 °F 93% 30.04 in 10.0 mi SSW 4.6 mph - N/A   Mostly Cloudy
3:53 AM 68.0 °F - 66.0 °F 93% 30.04 in 10.0 mi SW 4.6 mph - N/A   Mostly Cloudy
4:53 AM 69.1 °F - 66.9 °F 93% 30.04 in 10.0 mi SSW 4.6 mph - N/A   Overcast
5:53 AM 68.0 °F - 66.9 °F 96% 30.05 in 10.0 mi SSW 3.5 mph - N/A   Overcast
6:42 AM 68.0 °F - 66.9 °F 96% 30.07 in 10.0 mi South 6.9 mph - N/A   Mostly Cloudy
6:53 AM 68.0 °F - 66.9 °F 96% 30.07 in 10.0 mi SSW 4.6 mph - N/A   Mostly Cloudy
7:00 AM 68.0 °F - 66.9 °F 96% 30.07 in 10.0 mi SSW 3.5 mph - N/A   Mostly Cloudy
7:21 AM 69.1 °F - 66.9 °F 93% 30.08 in 9.0 mi South 4.6 mph - N/A   Mostly Cloudy
7:53 AM 70.0 °F - 68.0 °F 93% 30.09 in 10.0 mi South 3.5 mph - N/A   Mostly Cloudy
8:00 AM 70.0 °F - 68.0 °F 93% 30.09 in 10.0 mi SSW 3.5 mph - N/A   Overcast
8:43 AM 72.0 °F - 69.1 °F 91% 30.11 in 10.0 mi WSW 4.6 mph - N/A   Mostly Cloudy
8:51 AM 71.6 °F - 69.8 °F 94% 30.11 in 10.0 mi SW 6.9 mph - N/A   Mostly Cloudy
8:53 AM 72.0 °F - 70.0 °F 93% 30.11 in 10.0 mi SW 5.8 mph - N/A   Mostly Cloudy
9:37 AM 73.0 °F - 70.0 °F 90% 30.12 in 10.0 mi SSW 6.9 mph - N/A   Mostly Cloudy
9:53 AM 73.9 °F - 70.0 °F 87% 30.12 in 10.0 mi SSW 6.9 mph - N/A   Mostly Cloudy
10:08 AM 75.9 °F - 72.0 °F 87% 30.11 in 10.0 mi SW 6.9 mph - N/A   Mostly Cloudy
10:17 AM 75.9 °F - 71.1 °F 85% 30.11 in 10.0 mi SW 9.2 mph - N/A   Overcast
10:43 AM 75.9 °F - 71.1 °F 85% 30.11 in 9.0 mi SSW 10.4 mph - 0.00 in Rain Rain
10:53 AM 75.0 °F - 71.1 °F 87% 30.11 in 9.0 mi SSW 6.9 mph - 0.00 in Rain Light Rain
11:40 AM 75.9 °F - 70.0 °F 82% 30.10 in 10.0 mi SSW 8.1 mph - 0.00 in   Mostly Cloudy
11:53 AM 79.0 °F - 71.1 °F 77% 30.09 in 10.0 mi SW 9.2 mph - 0.00 in   Mostly Cloudy
12:00 PM 77.0 °F - 70.0 °F 79% 30.09 in 10.0 mi SSW 10.4 mph - N/A   Scattered Clouds
12:53 PM 79.0 °F - 71.1 °F 77% 30.05 in 10.0 mi South 8.1 mph - N/A   Scattered Clouds
1:53 PM 82.0 °F 84.5 °F 66.9 °F 60% 30.02 in 10.0 mi SSW 11.5 mph - N/A Thunderstorm Mostly Cloudy
2:37 PM 75.9 °F - 70.0 °F 82% 30.02 in 2.5 mi West 15.0 mph - 0.02 in Rain , Thunderstorm Light Rain
2:53 PM 73.0 °F - 69.1 °F 87% 30.03 in 2.5 mi West 8.1 mph - 0.05 in Rain , Thunderstorm Thunderstorms and Rain
3:00 PM 73.0 °F - 70.0 °F 90% 30.04 in 4.0 mi WSW 11.5 mph - 0.00 in Rain , Thunderstorm Light Thunderstorms and Rain
3:07 PM 73.0 °F - 69.1 °F 87% 30.05 in 10.0 mi NW 9.2 mph - 0.00 in Rain , Thunderstorm Light Thunderstorms and Rain
3:51 PM 71.6 °F - 68.0 °F 88% 30.04 in 10.0 mi NNE 10.4 mph - 0.00 in   Overcast
3:53 PM 72.0 °F - 68.0 °F 87% 30.04 in 10.0 mi NNE 10.4 mph - 0.00 in   Overcast
4:26 PM 71.1 °F - 68.0 °F 90% 30.04 in 10.0 mi NNE 9.2 mph - N/A   Mostly Cloudy
4:53 PM 73.0 °F - 68.0 °F 84% 30.04 in 10.0 mi NNE 9.2 mph - N/A   Scattered Clouds
5:53 PM 72.0 °F - 66.9 °F 84% 30.05 in 10.0 mi ENE 4.6 mph - N/A   Mostly Cloudy
6:31 PM 70.0 °F - 66.9 °F 90% 30.06 in 10.0 mi NNE 4.6 mph - N/A   Mostly Cloudy
6:53 PM 69.1 °F - 68.0 °F 96% 30.06 in 5.0 mi NNE 8.1 mph - N/A   Overcast
7:53 PM 69.1 °F - 66.9 °F 93% 30.07 in 8.0 mi NNE 9.2 mph - N/A   Mostly Cloudy
8:53 PM 68.0 °F - 66.0 °F 93% 30.10 in 9.0 mi North 9.2 mph - N/A   Mostly Cloudy
9:53 PM 68.0 °F - 66.0 °F 93% 30.12 in 9.0 mi NNE 6.9 mph - N/A   Mostly Cloudy
10:25 PM 66.9 °F - 66.0 °F 97% 30.11 in 9.0 mi NE 4.6 mph - N/A   Scattered Clouds
10:45 PM 66.9 °F - 64.9 °F 93% 30.11 in 8.0 mi Calm Calm - N/A   Mostly Cloudy
10:53 PM 66.9 °F - 64.9 °F 93% 30.11 in 8.0 mi Calm Calm - N/A   Overcast
11:12 PM 66.9 °F - 64.9 °F 93% 30.11 in 8.0 mi Calm Calm - N/A   Overcast
11:53 PM 66.9 °F - 66.0 °F 97% 30.09 in 9.0 mi Calm Calm - N/A   Overcast